This demonstration page uses our WeatherBlox Daily Observations layout. Learn more.

Left ArrowRight Arrow

Hourly Observations for February 10, 2017

Temp ( °F °C ) Dew Point ( °F °C ) Humidity (%) Winds ( mph kmh ) Pressure ( in mb ) Visibility ( mi km ) Precip ( " mm )
12:53 am 00:53 undefined 54 12.2 28 -2.2 37 37 undefined N/A 30.04 1017 N/A 0.00 0.00
1:53 am 01:53 Clear 53 11.7 30 -1.1 41 41 SE 13 20 30.03 1017 10 16 0.00 0.00
2:53 am 02:53 Clear 52 11.1 32 0 47 47 SE 12 19 30.02 1017 10 16 0.00 0.00
3:53 am 03:53 Clear 50 10 33 0.6 52 52 ESE 9 15 30.01 1016 10 16 0.00 0.00
4:53 am 04:53 Clear 50 10 35 1.7 57 57 ESE 9 15 30.00 1016 10 16 0.00 0.00
5:53 am 05:53 Clear 49 9.4 35 1.7 59 59 SE 10 17 30.00 1016 10 16 0.00 0.00
6:53 am 06:53 Clear 47 8.3 35 1.7 63 63 ESE 8 13 30.02 1017 10 16 0.00 0.00
7:53 am 07:53 Sunny 46 7.8 35 1.7 66 66 ESE 5 7 30.04 1017 10 16 0.00 0.00
8:53 am 08:53 Sunny 51 10.6 37 2.8 59 59 ESE 5 7 30.05 1018 10 16 0.00 0.00
9:53 am 09:53 Sunny 56 13.3 37 2.8 49 49 SSE 6 9 30.05 1018 10 16 0.00 0.00
10:53 am 10:53 Sunny 64 17.8 37 2.8 37 37 SSE 9 15 30.03 1017 10 16 0.00 0.00
11:53 am 11:53 Sunny 71 21.7 37 2.8 29 29 S 9 15 30.00 1016 10 16 0.00 0.00
12:53 pm 12:53 Sunny 77 25 35 1.7 22 22 S 10 17 29.96 1015 10 16 0.00 0.00
1:53 pm 13:53 Sunny 81 27.2 34 1.1 18 18 SSW 12 19 29.91 1013 10 16 0.00 0.00
2:53 pm 14:53 Sunny 84 28.9 32 0 15 15 S 10 17 29.88 1012 10 16 0.00 0.00
3:53 pm 15:53 Sunny 88 31.1 31 -0.6 13 13 WSW 12 19 29.85 1011 10 16 0.00 0.00
4:53 pm 16:53 Sunny 88 31.1 31 -0.6 13 13 WSW 7 11 29.85 1011 10 16 0.00 0.00
5:53 pm 17:53 Sunny 86 30 29 -1.7 13 13 W 14 22 29.85 1011 10 16 0.00 0.00
6:53 pm 18:53 Clear 76 24.4 29 -1.7 18 18 SSW 5 7 29.87 1012 10 16 0.00 0.00
7:53 pm 19:53 Clear 69 20.6 30 -1.1 23 23 WSW 10 17 29.89 1012 10 16 0.00 0.00
8:53 pm 20:53 Clear 65 18.3 32 0 29 29 SE 7 11 29.91 1013 10 16 0.00 0.00
9:53 pm 21:53 Clear 60 15.6 36 2.2 41 41 SSW 7 11 29.92 1013 8 13 0.00 0.00
10:53 pm 22:53 Clear 58 14.4 38 3.3 48 48 SE 5 7 29.91 1013 10 16 0.00 0.00
11:53 pm 23:53 Clear 53 11.7 38 3.3 57 57 ESE 8 13 29.91 1013 10 16 0.00 0.00

Powered by AerisWeather